Погода в Евле

Швеция     60°40′07″N   17°08′03″E
темп.,
°C
ветер,
м/с
пор.,
м/с
влажн.,
%
обл.,
%
осадки,
мм/ч
давл.,
гПа
погр.,
м
18 апреля, вс
вс1823:00+2с36815 0.0 103298
02:00+2с48825 0.0 1032118
05:00+2с488320 0.0 1031137
08:00+4с477610 0.0 1031175
11:00+6ссв45665 0.0 1032264
14:00+7св356229 0.0 1031324
17:00+5всв346330 0.0 1031203
20:00+3св22780 0.0 103137
19 апреля, пн
пн1923:00+3св11792 0.0 103210
02:00+3зсз11795 0.0 103110
05:00+2сз11795 0.0 103110
08:00+5зюз00655 0.0 103174
11:00+7вюв22560 0.0 1030331
14:00+7в336128 0.0 1030294
17:00+6в45640 0.0 1028158
20:00+6вюв36700 0.0 102779
20 апреля, вт
вт2023:00+5ю34800 0.0 102743
02:00+4ю22845 0.0 102632
05:00+3ююз2286100 0.0 102524
08:00+5ю2474100 0.0 1024125
11:00+9юв345276 0.0 1022507
14:00+9вюв4452100 0.0 1020810
17:00+8вюв4657100 0.0 1017125
20:00+8юв51062100 0.0 1015169
21 апреля, ср
ср2123:00+6ю51067100 0.0 1013210
02:00+5ю387896 0.0 1011164
05:00+3ю36883 0.0 1008104
08:00+5ююв35783 0.0 1006180
11:00+9юв3463100 0.0 1004609
14:00+6в4575100 0.4 1003184
17:00+5св1186100 0.7 100373
20:00+4с6988100 2.1 1003288
22 апреля, чт
чт2223:00+3с101593100 0.0 1005636
02:00+3с91581100 0.0 1007994
05:00+3с81462100 0.0 1008863
08:00+3ссз7125695 0.0 1010775
11:00+5с7104399 0.0 10111117
14:00+5св694854 0.0 10121227
17:00+5ссв374524 0.0 1014862
20:00+4с125066 0.0 101511